Location: Kikino
(54.4440°N, 112.0940°W)
Time: 19:04:10
(UTC+00:00)

A-11 Canister half - Pass Details

Date: 27 May 2024
Orbit: 1525 x 1683 km, 47.3° (Epoch: 12 June)

Event Time Altitude Azimuth Distance (km) Brightness Sun altitude
Rises 05:13:52 0° 246° (WSW) 4,687 11.6 -9.1°
Reaches altitude 10° 05:16:57 10° 242° (WSW) 3,718 11.1 -9.3°
Maximum altitude 05:25:59 54° 169° (S) 1,849 9.1 -9.9°
Drops below altitude 10° 05:35:18 10° 96° (E) 3,833 10.8 -10.6°
Sets 05:38:32 0° 92° (E) 4,841 11.3 -10.8°
